CDT,Max TemperatureF,Mean TemperatureF,Min TemperatureF,Max Dew PointF,MeanDew PointF,Min DewpointF,Max Humidity, Mean Humidity, Min Humidity, Max Sea Level PressureIn, Mean Sea Level PressureIn, Min Sea Level PressureIn, Max VisibilityMiles, Mean VisibilityMiles, Min VisibilityMiles, Max Wind SpeedMPH, Mean Wind SpeedMPH, Max Gust SpeedMPH,PrecipitationIn, CloudCover, Events, WindDirDegrees
2012-10-1,69,58,46,50,37,27,71,46,24,30.09,30.03,29.93,10,10,7,21,12,29,0.00,1,,321
2012-10-2,75,54,33,37,30,27,76,41,17,30.01,29.87,29.75,10,10,10,21,8,28,0.00,0,,172
2012-10-3,75,58,41,43,33,27,82,46,23,29.89,29.82,29.75,10,10,3,18,7,32,0.00,1,,45
2012-10-4,48,42,35,43,34,28,100,79,57,30.25,30.08,29.78,10,9,3,33,24,41,0.00,7,Rain,295
2012-10-5,42,35,28,30,27,25,87,72,53,30.29,30.24,30.22,10,10,10,23,14,32,0.00,3,,291
2012-10-6,44,36,28,30,26,21,87,70,46,30.40,30.32,30.23,10,10,7,16,11,22,0.00,5,,309
2012-10-7,57,40,24,25,21,19,80,51,26,30.23,29.99,29.80,10,10,10,18,9,24,0.00,0,,205
2012-10-8,62,50,37,43,33,21,71,55,45,29.80,29.68,29.56,10,10,10,24,9,32,0.00,4,Rain,226
2012-10-9,44,40,35,36,28,21,75,60,42,30.05,29.89,29.75,10,10,10,25,11,32,0.00,6,Rain,288
2012-10-10,51,38,26,30,27,25,100,62,35,30.08,29.98,29.79,10,10,10,13,6,16,0.00,2,Rain,222
2012-10-11,44,36,28,37,29,19,100,71,37,30.42,30.20,29.88,10,10,7,20,11,25,0.02,2,Rain,329
2012-10-12,55,35,15,25,19,12,93,56,24,30.43,30.22,29.86,10,10,10,24,8,32,0.00,2,,145
2012-10-13,64,53,42,43,39,21,81,60,30,29.86,29.74,29.67,10,10,10,17,9,24,0.00,2,,176
2012-10-14,57,46,35,37,34,30,87,66,48,29.97,29.91,29.83,10,10,10,17,10,23,0.00,0,,310
2012-10-15,66,47,28,39,35,25,93,60,35,29.97,29.81,29.62,10,10,10,22,7,30,0.00,1,,158
2012-10-16,71,61,51,50,45,39,77,55,41,29.61,29.47,29.29,10,10,5,10,5,,0.00,1,Rain,207
2012-10-17,57,50,42,52,45,39,100,85,62,29.32,29.25,29.19,10,10,4,24,12,32,0.73,7,Rain,276
2012-10-18,48,44,41,46,43,39,100,96,87,29.55,29.33,29.19,10,5,1,34,21,47,0.96,8,Rain,305
2012-10-19,42,40,39,39,39,37,100,96,87,29.79,29.72,29.56,10,7,2,32,21,44,0.12,8,Rain,319
2012-10-20,51,43,35,46,41,36,100,93,82,29.78,29.73,29.67,10,8,0,18,6,21,0.00,5,Fog,142
2012-10-21,53,48,42,48,44,41,100,89,77,30.02,29.83,29.70,10,9,7,15,11,21,0.00,2,,25
2012-10-22,59,50,41,48,45,39,93,82,67,30.05,29.97,29.87,10,10,10,15,9,16,0.00,6,Rain,34
2012-10-23,57,52,48,55,52,46,100,94,82,29.85,29.74,29.66,10,4,0,12,7,16,0.00,7,Fog,137
2012-10-24,51,42,33,48,39,34,100,86,71,30.00,29.93,29.84,10,9,4,20,11,25,0.06,5,Snow,314
2012-10-25,37,35,33,34,28,25,93,75,60,30.21,30.04,29.95,10,10,3,23,17,31,0.06,7,Snow,304
2012-10-26,39,36,32,25,23,19,75,61,48,30.37,30.33,30.22,10,10,10,21,14,33,0.00,8,,270
2012-10-27,42,32,21,30,24,18,93,70,49,30.35,30.30,30.25,10,10,10,13,4,17,0.00,4,,176
2012-10-28,44,38,33,36,33,32,100,84,66,30.29,30.24,30.18,10,9,4,13,6,,0.00,6,,126
2012-10-29,53,45,37,34,32,30,81,68,47,30.19,30.16,30.13,10,10,5,22,15,25,0.00,3,,127
2012-10-30,44,38,33,32,30,27,87,70,49,30.19,30.15,30.09,10,10,10,15,12,20,0.00,6,Rain,126
2012-10-31,57,42,26,41,33,27,100,73,44,30.09,30.02,29.95,10,10,7,21,5,26,0.00,3,,150